[[{"header":{"parameterUnit":"m.s-1","parameterCategory":1,"la1":30.2991,"la2":30.254,"lo1":-89.0895,"lo2":-89.0444,"dy":0.0017,"dx":0.0017,"nx":28,"ny":28,"refTime":"2025-06-19T21:00:00:Z","depth":0,"parameterNumber":2,"parameterNumberName":"U-component_of_WINDS"},"data":[0,0,0,0,0,0,0,0,0,0,0,0,0,0,0,0,0,0,0,0,0,0,0,0,0,0,0,0,0,0,0,0,0,0,0,0,0,0,0,0,0,0,0,0,0,0,0,0,0,0,0,0,0,0,0,0,0,0,3.9621,3.9622,0,3.9762,3.9764,3.9766,3.9715,3.9712,3.9708,3.9705,3.9853,3.986,3.9867,0,0,0,0,0,0,0,0,0,0,0,0,0,3.931,3.9316,3.9621,3.9623,3.9624,3.9762,3.9764,3.9766,3.9715,3.9711,3.9708,3.9704,3.9851,3.9859,3.9868,0,0,0,0,0,0,0,0,0,0,0,0,0,3.9448,3.9318,3.9621,3.9616,3.9617,3.9762,3.9764,3.9767,3.9716,3.9711,3.9707,3.9702,3.9848,3.9858,3.9869,4.0028,0,0,3.99,3.9905,0,0,0,0,0,0,0,0,3.944,3.9459,3.9615,3.9616,3.9618,3.9716,3.9709,3.9854,3.9717,3.9678,3.9705,3.97,3.9812,3.9825,3.9862,4.0035,4.0041,3.9901,3.9907,3.9912,3.9915,0,0,0,0,0,0,0,3.943,3.9453,3.9677,3.9617,3.9619,3.9607,3.9622,3.9736,3.977,3.9681,3.9678,3.9695,3.9812,3.9852,3.9865,4.0044,3.9901,3.991,3.9917,3.9921,4.0355,4.0361,0,0,0,0,0,0,3.942,3.9445,3.9672,3.9681,3.9515,3.9617,3.9633,3.9689,3.9769,3.9776,3.9699,3.9692,3.9837,3.9853,3.987,4.0062,3.9912,3.9922,3.9928,4.035,4.0357,4.0362,0,0,0,0,0,0,3.9413,3.944,3.9667,3.9562,3.959,3.9627,3.9691,3.9695,3.9735,3.9782,3.9788,3.9734,3.9834,3.9855,3.9989,4.0066,3.9926,3.9936,4.0344,4.0352,4.036,4.0447,0,0,0,0,0,0,3.9405,3.9438,3.9499,3.9564,3.9596,3.9783,3.9696,3.9701,3.9752,3.9745,3.9817,3.9824,3.9831,3.9974,3.9999,4.0078,3.9944,4.0337,4.0348,4.0357,4.0438,4.0457,4.0474,0,0,0,0,0,3.9394,3.9518,3.9502,3.953,3.9672,3.9787,3.9806,3.9811,3.9759,3.982,3.9851,3.9822,4.0054,3.9988,4.0016,4.0099,4.0332,4.0345,4.0356,4.043,4.0454,4.0474,0,0,0,0,0,0,3.9462,3.9527,3.9509,3.9659,3.9718,3.9778,3.9856,3.9836,3.9912,3.9902,3.9906,3.9923,4.0061,4.0093,4.0019,4.0258,4.0185,4.0204,4.0232,4.0255,4.0273,4.0262,3.9952,0,0,0,0,0,3.9494,3.9581,3.9634,3.9761,3.9791,3.9819,3.9869,3.9868,3.993,3.9955,3.9995,4.0057,4.0144,4.0201,4.0284,4.0443,4.0458,4.0514,4.0532,4.0547,4.0562,4.0649,4.0675,4.0402,4.0402,4.0402,0,0,3.9562,3.9608,3.9663,3.9775,3.9821,3.9912,3.984,3.9939,4.0007,3.997,4.0098,4.0131,4.02,4.0347,4.0414,4.0379,4.0641,4.0562,4.0573,4.0581,4.0664,4.069,4.0713,4.041,4.0409,4.0407,0,0,3.9732,3.9776,3.9886,3.9933,4.0003,4.0021,4.0047,4.0111,4.0131,4.026,4.0234,4.0315,4.0465,4.0516,4.0561,4.0752,4.0728,4.0779,4.0874,4.0958,4.098,4.0999,4.1067,4.1091,4.0794,4.0794,4.0794,0,3.9807,3.9943,3.9945,4.0047,4.0098,4.0068,4.018,4.0226,4.032,4.0356,4.0315,4.0503,4.0548,4.0706,4.0752,4.079,4.0821,4.077,4.0976,4.0995,4.1013,4.1078,4.1103,4.08,4.0799,4.0799,4.0798,0,4.0032,4.0127,4.0208,4.0298,4.0358,4.0465,4.0485,4.0545,4.054,4.0562,4.0694,4.0747,4.0839,4.0877,4.0873,4.1036,4.1012,4.0974,4.0901,4.1045,4.1106,4.1131,4.0808,4.0806,4.0804,4.0803,0,0,4.0249,4.0339,4.0369,4.041,4.0485,4.0559,4.0665,4.0755,4.0807,4.0873,4.0962,4.109,4.1055,4.1107,4.1108,4.1183,4.133,4.1136,4.1137,4.117,4.1513,4.154,4.1569,4.1315,4.132,4.1324,4.1507,0,4.0424,4.0609,4.0615,4.0784,4.0872,4.0845,4.0937,4.0994,4.1018,4.1097,4.1124,4.1214,4.1162,4.1193,4.1265,4.1297,4.1399,4.1284,4.1399,4.1403,4.1381,4.1601,4.1631,4.1801,4.1531,4.1535,4.1538,0,4.0654,4.0726,4.0904,4.0967,4.1004,4.1087,4.117,4.1246,4.131,4.1322,4.138,4.1371,4.148,4.1404,4.1555,4.1477,4.1525,4.1547,4.1554,4.1565,4.1478,4.1617,4.1855,4.1881,4.1575,4.1572,4.157,0,4.0794,4.0936,4.106,4.1096,4.1173,4.1232,4.1267,4.1326,4.138,4.1454,4.1489,4.1574,4.1621,4.1688,4.1703,4.1646,4.1854,4.1779,4.1868,4.1868,4.1913,4.191,4.2162,4.1944,4.1944,4.1944,4.1943,0,4.0989,4.1099,4.1124,4.1201,4.1323,4.133,4.1451,4.1482,4.1536,4.1618,4.1601,4.168,4.1694,4.1776,4.1789,4.1912,4.1934,4.1947,4.1949,4.1949,4.1947,4.1979,4.1968,4.195,4.1949,4.1948,4.1946,0,4.1165,4.1187,4.1321,4.1382,4.1401,4.1488,4.1541,4.1615,4.1637,4.1743,4.1768,4.1803,4.1899,4.192,4.2034,4.2042,4.2189,4.218,4.2167,4.2166,4.2253,4.2245,4.2535,4.2573,4.2331,4.2334,4.2336,0,4.1289,4.1372,4.1443,4.1496,4.1534,4.1621,4.1676,4.1686,4.1744,4.1824,4.1888,4.1982,4.2057,4.2212,4.2248,4.2336,4.2328,4.2424,4.2341,4.2338,4.2329,4.2324,4.2332,4.2439,4.2442,4.2444,4.2445,0,4.1505,4.1511,4.159,4.1674,4.1739,4.1805,4.1868,4.1914,4.1933,4.1999,4.2096,4.2154,4.227,4.2364,4.2451,4.2488,4.2471,4.2471,4.2496,4.2496,4.2485,4.2492,4.2209,4.2464,4.2463,4.2461,4.246,4.2459,4.1658,4.1731,4.1792,4.1881,4.1929,4.1989,4.2061,4.2093,4.2173,4.2268,4.2269,4.2375,4.2439,4.2554,4.2597,4.268,4.2651,4.2687,4.2696,4.2705,4.2713,4.2473,4.2697,4.2696,4.2696,4.2695,4.2695,0,4.1873,4.1911,4.1993,4.2081,4.2151,4.2128,4.2196,4.2257,4.235,4.241,4.2484,4.2596,4.2687,4.2731,4.2821,4.2879,4.2874,4.2903,4.2898,4.2907,4.2734,4.2703,4.2906,4.2906,4.2906,4.2906,4.2906,4.2906,4.1993,4.2116,4.213,4.2276,4.2314,4.2417,4.2458,4.2513,4.2561,4.2686,4.2761,4.2789,4.2843,4.2936,4.3019,4.3029,4.3063,4.3096,4.3103,4.2941,4.2919,4.2899,4.287,4.3104,4.3104,4.3268,4.327,4.3271]},{"header":{"parameterUnit":"m.s-1","parameterCategory":1,"la1":30.2991,"la2":30.254,"lo1":-89.0895,"lo2":-89.0444,"dy":0.0017,"dx":0.0017,"nx":28,"ny":28,"refTime":"2025-06-19T21:00:00:Z","depth":0,"parameterNumber":3,"parameterNumberName":"V-component_of_WINDS"},"data":[0,0,0,0,0,0,0,0,0,0,0,0,0,0,0,0,0,0,0,0,0,0,0,0,0,0,0,0,0,0,0,0,0,0,0,0,0,0,0,0,0,0,0,0,0,0,0,0,0,0,0,0,0,0,0,0,0,0,-0.77,-0.77,0,-0.7719,-0.7719,-0.7719,-0.7728,-0.7728,-0.7728,-0.7728,-0.7746,-0.7746,-0.7746,0,0,0,0,0,0,0,0,0,0,0,0,0,-0.7672,-0.7673,-0.77,-0.77,-0.7701,-0.7719,-0.7719,-0.7719,-0.7728,-0.7728,-0.7728,-0.7728,-0.7745,-0.7746,-0.7747,0,0,0,0,0,0,0,0,0,0,0,0,0,-0.7687,-0.7673,-0.77,-0.7707,-0.7708,-0.7719,-0.7719,-0.7719,-0.7728,-0.7728,-0.7728,-0.7728,-0.7745,-0.7746,-0.7747,-0.7751,0,0,-0.7749,-0.7749,0,0,0,0,0,0,0,0,-0.7686,-0.7688,-0.7706,-0.7707,-0.7708,-0.7721,-0.7716,-0.773,-0.7728,-0.772,-0.7728,-0.7728,-0.7737,-0.7739,-0.7742,-0.7752,-0.7753,-0.7749,-0.7749,-0.775,-0.775,0,0,0,0,0,0,0,-0.7685,-0.7687,-0.7707,-0.7706,-0.7707,-0.7709,-0.7711,-0.7718,-0.7728,-0.7721,-0.7721,-0.7724,-0.7738,-0.7741,-0.7743,-0.7753,-0.7749,-0.775,-0.775,-0.775,-0.7769,-0.7769,0,0,0,0,0,0,-0.7683,-0.7686,-0.7707,-0.7708,-0.7697,-0.771,-0.7712,-0.7717,-0.7728,-0.773,-0.7723,-0.7724,-0.774,-0.7742,-0.7743,-0.775,-0.775,-0.775,-0.7751,-0.7769,-0.7769,-0.7769,0,0,0,0,0,0,-0.7682,-0.7685,-0.7706,-0.7697,-0.77,-0.771,-0.7715,-0.7717,-0.7721,-0.7731,-0.7732,-0.7725,-0.774,-0.7742,-0.775,-0.7751,-0.7751,-0.7751,-0.7769,-0.7769,-0.7769,-0.7763,0,0,0,0,0,0,-0.7681,-0.7684,-0.7686,-0.7697,-0.7701,-0.7712,-0.7715,-0.7717,-0.7722,-0.7723,-0.7733,-0.7734,-0.774,-0.7748,-0.775,-0.7752,-0.7752,-0.7769,-0.7769,-0.7769,-0.7763,-0.7763,-0.7763,0,0,0,0,0,-0.768,-0.7684,-0.7686,-0.7689,-0.7703,-0.7712,-0.7714,-0.7721,-0.7722,-0.7724,-0.7731,-0.7734,-0.775,-0.7749,-0.7751,-0.7753,-0.7769,-0.7769,-0.7769,-0.7764,-0.7763,-0.7763,0,0,0,0,0,0,-0.7672,-0.7685,-0.7688,-0.7695,-0.7703,-0.7714,-0.7716,-0.772,-0.7727,-0.7728,-0.7736,-0.7738,-0.7745,-0.775,-0.7748,-0.7759,-0.776,-0.776,-0.7755,-0.7755,-0.7755,-0.7753,-0.7753,0,0,0,0,0,-0.7671,-0.7678,-0.7689,-0.7694,-0.7697,-0.7706,-0.771,-0.7715,-0.7723,-0.7726,-0.7733,-0.774,-0.7747,-0.7751,-0.7758,-0.7764,-0.7767,-0.7767,-0.7766,-0.7766,-0.7766,-0.7771,-0.7771,-0.7769,-0.7769,-0.7769,0,0,-0.7669,-0.7677,-0.7681,-0.7692,-0.7699,-0.7705,-0.7709,-0.7715,-0.772,-0.7727,-0.7734,-0.774,-0.7748,-0.7755,-0.7759,-0.776,-0.7767,-0.7766,-0.7766,-0.7767,-0.7771,-0.7771,-0.7771,-0.777,-0.777,-0.777,0,0,-0.7669,-0.7676,-0.7681,-0.7687,-0.7697,-0.7703,-0.7704,-0.7715,-0.7718,-0.7726,-0.7732,-0.7737,-0.7749,-0.7755,-0.7759,-0.7762,-0.7766,-0.7764,-0.7763,-0.7767,-0.7767,-0.7767,-0.7768,-0.7768,-0.7764,-0.7764,-0.7764,0,-0.7665,-0.7675,-0.7683,-0.7689,-0.7694,-0.7701,-0.7707,-0.7712,-0.7723,-0.7727,-0.7728,-0.7743,-0.7749,-0.7757,-0.7758,-0.7762,-0.7763,-0.7763,-0.7766,-0.7766,-0.7767,-0.7768,-0.7768,-0.7764,-0.7764,-0.7764,-0.7764,0,-0.767,-0.7677,-0.768,-0.7691,-0.7696,-0.7702,-0.7711,-0.7715,-0.772,-0.7726,-0.7734,-0.7742,-0.775,-0.7753,-0.7757,-0.7762,-0.7762,-0.7765,-0.7766,-0.7766,-0.7768,-0.7768,-0.7764,-0.7764,-0.7764,-0.7764,0,0,-0.7664,-0.768,-0.7681,-0.7686,-0.7698,-0.7703,-0.7709,-0.7718,-0.7722,-0.773,-0.7735,-0.7745,-0.7747,-0.7753,-0.7758,-0.7761,-0.7763,-0.7763,-0.7763,-0.7763,-0.7769,-0.7767,-0.7768,-0.7766,-0.7766,-0.7766,-0.7769,0,-0.7666,-0.7677,-0.7685,-0.7693,-0.77,-0.7707,-0.7712,-0.772,-0.7726,-0.7732,-0.7739,-0.7745,-0.7748,-0.7751,-0.7755,-0.7762,-0.7764,-0.7762,-0.7771,-0.7771,-0.7768,-0.7768,-0.7766,-0.7769,-0.7769,-0.7769,-0.7769,0,-0.7668,-0.7676,-0.7686,-0.7697,-0.77,-0.7704,-0.7713,-0.7719,-0.7728,-0.7732,-0.7738,-0.7744,-0.7751,-0.7752,-0.7761,-0.776,-0.7764,-0.7768,-0.7768,-0.7769,-0.777,-0.7769,-0.777,-0.777,-0.777,-0.777,-0.777,0,-0.7663,-0.7676,-0.7684,-0.7688,-0.7701,-0.7704,-0.771,-0.7719,-0.7724,-0.7732,-0.7735,-0.7743,-0.7748,-0.7754,-0.7762,-0.7762,-0.7771,-0.7773,-0.7774,-0.7774,-0.7776,-0.7775,-0.7777,-0.7779,-0.7779,-0.7779,-0.7779,0,-0.7664,-0.7669,-0.7682,-0.7686,-0.7693,-0.7701,-0.7707,-0.7714,-0.7721,-0.7727,-0.7734,-0.7739,-0.7749,-0.7755,-0.7761,-0.7769,-0.7771,-0.7774,-0.7776,-0.7773,-0.7773,-0.7776,-0.7776,-0.7779,-0.7779,-0.7779,-0.7779,0,-0.7659,-0.7668,-0.7676,-0.7688,-0.7692,-0.7696,-0.7706,-0.7711,-0.7717,-0.7724,-0.7727,-0.7737,-0.7745,-0.7753,-0.7764,-0.7768,-0.7775,-0.7777,-0.7772,-0.7773,-0.7774,-0.7774,-0.7777,-0.7778,-0.7779,-0.7779,-0.7779,0,-0.7659,-0.7663,-0.7676,-0.768,-0.7686,-0.7693,-0.7699,-0.7707,-0.7713,-0.7723,-0.7727,-0.7736,-0.7743,-0.7756,-0.7764,-0.7772,-0.7774,-0.7775,-0.7776,-0.7774,-0.7774,-0.7774,-0.7775,-0.7775,-0.7775,-0.7774,-0.7774,0,-0.7657,-0.7661,-0.7669,-0.7678,-0.7684,-0.7692,-0.77,-0.7703,-0.7713,-0.7719,-0.7728,-0.7733,-0.7745,-0.7753,-0.7763,-0.7769,-0.7773,-0.7774,-0.7775,-0.7773,-0.777,-0.7772,-0.7771,-0.7774,-0.7774,-0.7774,-0.7774,-0.7774,-0.7655,-0.7659,-0.7669,-0.7677,-0.7684,-0.7691,-0.7696,-0.7704,-0.7711,-0.7721,-0.7726,-0.7735,-0.7744,-0.7757,-0.7763,-0.777,-0.7771,-0.7772,-0.7773,-0.7773,-0.7772,-0.7769,-0.7772,-0.7772,-0.7772,-0.7772,-0.7772,0,-0.7654,-0.766,-0.7668,-0.7679,-0.7685,-0.769,-0.7699,-0.7704,-0.7711,-0.772,-0.7727,-0.7737,-0.7746,-0.7755,-0.7764,-0.7768,-0.777,-0.777,-0.7769,-0.7771,-0.7771,-0.7769,-0.7768,-0.7768,-0.7768,-0.7768,-0.7768,-0.7768,-0.7654,-0.7661,-0.7667,-0.7678,-0.7685,-0.7694,-0.7698,-0.7705,-0.7712,-0.7723,-0.773,-0.7736,-0.7745,-0.7755,-0.7763,-0.7766,-0.7769,-0.7768,-0.7771,-0.777,-0.7771,-0.7771,-0.777,-0.7768,-0.7768,-0.777,-0.777,-0.777]}]]